TIME,DELAY(SENSOR),PRES,OXYGEN,RAWTEMP,T(OPTODE),TCPHASE,FLUOR,BETA(BETA700),BETA(BETA412),BETA(BETA440),CDOM,C(CSC),ED(ED411.90),ED(ED443.80),ED(ED489.40),ED(ED554.70),LU(LU412.20),LU(LU443.80),LU(LU489.40),LU(LU555.00),COMP,TILTX,TILTY,CHECK
1353708534,5803,846.1099853515625000,166.9591064453125000,410.1022033691406000,10.2945499420166020,38.6123504638671900,52,99,57,56,64,13458,2146963154,2147512320,2147282285,2147501056,2147089298,2146933558,2147699492,2147125394,3358,-1,9,12488
1353712130,5806,970.2299804687500000,187.3820953369140600,487.5014953613281000,7.9167351722717285,38.4858703613281250,52,101,57,56,65,13445,2146962249,2147515035,2147294573,2147517906,2147089755,2146924068,2147717284,2147120000,2137,-1,9,41193
1353715730,5806,985.9099731445312000,198.6284942626953000,497.6080932617187500,7.6036820411682130,37.9419288635253900,53,101,57,56,64,13444,2146961316,2147518070,2147294546,2147520384,2147091218,2146922002,2147718125,2147121526,3237,-1,9,52925
1353719330,5805,994.5399780273438000,200.8471069335937500,498.9306945800781000,7.5626640319824220,37.8283386230468750,53,103,57,57,64,13424,2146961298,2147514249,2147293293,2147520036,2147090477,2146920521,2147718582,2147122989,3162,-1,9,15300
1353722930,5806,997.1599731445312000,202.3592987060547000,501.2923889160156000,7.4893918037414550,37.7762985229492200,52,99,58,56,65,13424,2146961636,2147512694,2147293641,2147519021,2147090633,2146923949,2147715931,2147119414,3347,-1,9,48711
1353726530,5808,1000.6599731445312000,202.9037017822265600,501.8858032226562500,7.4709758758544920,37.7542991638183600,52,101,57,56,66,13403,2146959853,2147513737,2147293467,2147520320,2147090596,2146921133,2147716644,2147119296,374,-1,9,9359
1353730130,5808,1005.8800048828125000,202.6262054443359400,501.6108093261719000,7.4795098304748535,37.7655906677246100,53,100,58,56,65,13398,2146961106,2147517202,2147293878,2147525348,2147089170,2146924260,2147720402,2147119689,220,-1,8,53757
1353733730,5809,1007.5100097656250000,201.6723022460937500,500.7463073730469000,7.5063390731811520,37.8096694946289060,51,102,57,56,65,13402,2146961051,2147517357,2147297252,2147519405,2147091245,2146927771,2147714322,2147119186,209,0,9,28420
1353737330,5808,1002.6300048828125000,202.7281951904297000,502.1506958007812500,7.4627537727355960,37.7692108154296900,51,101,57,55,64,13400,2146959680,2147515392,2147293577,2147521270,2147091318,2146925513,2147716626,2147121024,999,-1,8,34975
1353740930,5804,1002.6900024414062000,204.8601989746093800,504.5238037109375000,7.3890781402587890,37.6815681457519500,51,101,57,56,64,13395,2146965019,2147517778,2147295469,2147515556,2147090797,2146918125,2147720118,2147117878,160,-1,8,21940
1353744530,5807,994.8800048828125000,205.0263977050781200,506.9476928710937500,7.3137869834899900,37.7141113281250000,53,103,55,56,64,13400,2146962514,2147516818,2147294080,2147519634,2147091172,2146921261,2147717769,2147120265,41,-1,9,28654
1353748130,5805,999.5599975585938000,206.9514007568359400,507.5187072753906000,7.2960419654846190,37.6090698242187500,53,100,58,58,64,13399,2146959506,2147516388,2147293412,2147520228,2147092525,2146924324,2147717732,2147119030,3459,-1,9,17266
1353751730,5806,996.2299804687500000,206.6213989257812500,507.8775939941406000,7.2848911285400390,37.6351203918457000,52,101,57,57,64,13398,2146962642,2147516388,2147294637,2147520649,2147087213,2146924306,2147717677,2147121682,3299,-1,8,58834
1353755330,5809,994.9000244140625000,205.8576965332031200,508.2510070800781000,7.2732858657836910,37.6868286132812500,52,100,57,56,64,13380,2146962752,2147515355,2147293741,2147521316,2147089654,2146922496,2147720045,2147118464,48,-1,8,10569
1353758930,5805,997.7299804687500000,206.9517974853515600,507.7471923828125000,7.2889428138732910,37.6132011413574200,53,99,57,55,63,13382,2146962578,2147517540,2147296850,2147516635,2147093010,2146922221,2147718345,2147118564,3348,-1,9,9520
1353762530,5808,998.5900268554688000,206.8090972900390600,509.1365051269531000,7.2457609176635740,37.6454200744628900,52,100,56,55,63,13386,2146961344,2147515328,2147295917,2147522139,2147093897,2146919899,2147717494,2147119926,44,0,8,13389
1353766130,5805,1003.3499755859375000,206.8143005371093800,507.1500854492187500,7.3074979782104490,37.6103897094726560,52,101,57,55,65,13385,2146959542,2147516635,2147295405,2147520722,2147090596,2146926610,2147719515,2147119341,3492,-1,8,9629
1353769730,5805,1002.4400024414062000,206.5959930419922000,508.0215148925781000,7.2804188728332520,37.6393394470214840,52,109,57,58,64,13378,2146963684,2147518528,2147297179,2147520722,2147091172,2146924617,2147721261,2147120832,45,-1,8,47083
1353773330,5808,1007.2199707031250000,206.1551055908203000,506.3280944824219000,7.3330359458923340,37.6358985900878900,52,108,60,55,64,13382,2146964361,2147514422,2147292754,2147518262,2147090816,2146920374,2147716854,2147123154,406,-1,9,20930
1353776930,5809,1007.5700073242188000,205.1497955322265600,506.1297912597656000,7.3391947746276855,37.6919784545898440,52,99,58,57,64,13377,2146966857,2147521216,2147290331,2147518528,2147089526,2146919012,2147720658,2147119716,98,-1,8,21046
1353780530,5805,1009.3599853515625000,205.0227050781250000,504.9265136718750000,7.3765740394592285,37.6789093017578100,52,103,57,55,64,13378,2146961508,2147515273,2147295049,2147519597,2147090660,2146923218,2147716379,2147118966,2321,0,9,34902
1353784130,5808,1009.3499755859375000,204.9355010986328000,504.7521057128906000,7.3819890022277830,37.6813583374023440,52,99,57,56,63,13373,2146965531,2147519780,2147293888,2147518683,2147091008,2146928621,2147716955,2147121782,2803,-1,9,7291
1353787730,5806,1006.9400024414062000,204.0655975341797000,505.9010009765625000,7.3463048934936520,37.7534408569335940,52,134,58,55,64,13371,2146962368,2147520091,2147294994,2147521462,2147089508,2146917284,2147716160,2147122441,3236,0,9,50676
1353791330,5807,1002.6699829101562000,204.4239959716797000,507.3880920410156000,7.3001008033752440,37.7582588195800800,52,101,57,56,64,13372,2146957522,2147517001,2147296374,2147518656,2147089737,2146920850,2147718070,2147120393,40,0,8,30133
1353794930,5808,998.8699951171875000,207.3506011962890600,509.9367065429687500,7.2208847999572750,37.6277008056640600,52,101,57,56,64,13370,2146962587,2147519826,2147294418,2147519945,2147089472,2146920365,2147720795,2147121554,905,-1,8,37848
1353798530,5806,996.0300292968750000,209.9642028808593800,511.7106018066406000,7.1657209396362305,37.5045013427734400,51,101,57,56,64,13368,2146957997,2147518665,2147293833,2147523181,2147091273,2146923309,2147718829,2147121974,74,0,8,15509
1353802130,5807,999.9000244140625000,209.6463928222656200,510.6752929687500000,7.1979188919067380,37.5047187805175800,52,99,57,56,64,13369,2146958400,2147517458,2147295094,2147519716,2147090358,2146921298,2147720475,2147121252,3085,0,8,28103
1353805730,5807,997.4899902343750000,209.8029022216797000,511.7889099121094000,7.1632828712463380,37.5147209167480500,52,101,57,55,64,13364,2146960822,2147518921,2147295177,2147519296,2147091136,2146921124,2147717440,2147118390,3314,-1,8,28545
1353809330,5807,1002.5700073242188000,209.4940032958984400,511.1788024902344000,7.1822600364685060,37.5218696594238300,52,101,58,56,64,13366,2146961883,2147518720,2147295296,2147519798,2147091072,2146923547,2147720045,2147120256,148,-1,8,58640
1353812930,5804,1007.1900024414062000,209.1661071777343800,509.9753112792969000,7.2196841239929200,37.5201301574707000,53,101,57,56,64,13364,2146958080,2147518939,2147296009,2147519579,2147089124,2146926802,2147713334,2147121069,3456,-1,9,44157
1353816530,5805,1005.7199707031250000,208.4266052246093800,509.3508911132812500,7.2390961647033690,37.5534286499023440,52,101,58,55,64,13364,2146965476,2147518793,2147297152,2147523291,2147089728,2146923638,2147722788,2147119122,3229,-1,9,19895
1353820130,5809,1001.9699707031250000,208.0630950927734400,510.4711914062500000,7.2042651176452640,37.5944595336914060,52,101,56,55,64,13364,2146962550,2147520210,2147296978,2147518125,2147092754,2146924059,2147719597,2147121709,900,-1,8,64254
1353823730,5806,1006.3900146484375000,209.4470062255859400,510.3995056152344000,7.2064929008483890,37.5110893249511700,52,99,57,57,63,13367,2146961106,2147514852,2147295881,2147520557,2147090569,2146925092,2147720201,2147123483,406,0,8,20874
1353827330,5807,1008.2100219726562000,207.5252990722656200,509.0902099609375000,7.2472009658813480,37.6018714904785160,52,99,58,55,64,13361,2146958217,2147519360,2147295670,2147522240,2147091794,2146926116,2147715437,2147119771,20,0,8,46899
1353830930,5807,1006.7299804687500000,207.6132965087890600,508.9212951660156000,7.2524499893188480,37.5935897827148440,51,100,58,56,64,13349,2146957988,2147518537,2147295780,2147521444,2147091026,2146919899,2147720164,2147121097,144,-1,8,35976
1353834530,5804,1001.9899902343750000,207.9284057617187500,510.9035034179687500,7.1908211708068850,37.6102104187011700,52,101,57,56,64,13350,2146961965,2147518518,2147297709,2147519424,2147092022,2146921472,2147719204,2147118573,3500,-1,9,53449
1353838130,5808,1000.3400268554688000,207.2008056640625000,511.1456909179687500,7.1832900047302250,37.6578788757324200,51,107,56,56,64,13344,2146960530,2147517083,2147297526,2147520621,2147091830,2146922093,2147720036,2147118372,263,-1,8,49362
1353841730,5805,998.0499877929688000,207.8462066650390600,512.1447143554688000,7.1522178649902340,37.6371803283691400,51,101,58,56,64,13347,2146960566,2147520484,2147296411,2147520786,2147093769,2146919405,2147715419,2147121682,3559,-1,9,64030
1353845330,5805,997.5300292968750000,211.4425964355468800,513.4019775390625000,7.1130990982055660,37.4475517272949200,52,101,57,55,64,13348,2146961819,2147514395,2147296347,2147522962,2147089152,2146922706,2147718811,2147118884,3384,-1,9,47027
1353848930,5807,996.5599975585938000,211.6894989013672000,513.6082153320312000,7.1066861152648930,37.4365196228027340,52,101,57,57,64,13345,2146960429,2147518866,2147295030,2147521426,2147090477,2146925915,2147717229,2147122422,3483,-1,8,3313
1353852530,5804,998.9099731445312000,212.1837005615234400,513.7362060546875000,7.1027011871337890,37.4097595214843750,52,101,56,56,64,13347,2146962816,2147517805,2147298249,2147521325,2147088457,2146926052,2147719835,2147123300,3512,-1,9,53078
1353852654,5805,9.3999996185302730,212.0901947021484400,513.3558959960938000,7.1145348548889160,37.4086685180664060,52,101,58,56,65,13417,2146960960,2147514496,2147297270,2147520128,2147087890,2146924333,2147720036,2147120685,3424,0,8,2297
